Location: Charbonni�res
(45.9952°N, 2.9982°E)
Time: 18:14:16
(UTC+00:00)

Lacrosse 4 Rocket - Pass Details

Date: 29 November 2020
Orbit: 537 x 620 km, 68.0° (Epoch: 22 January)

Event Time Altitude Azimuth Distance (km) Brightness Sun altitude
Exits shadow 03:38:23 16° 109° (ESE) 1,593 4.2 -35.6°
Drops below altitude 10° 03:39:25 10° 116° (ESE) 1,947 4.7 -35.4°
Sets 03:41:52 0° 126° (SE) 2,859 5.6 -35.0°
